Year,Month,Day,Hour,Minute,Value (Times are PST for temperature in C)
2018,05,06,00,00,14.50
2018,05,06,00,01,14.50
2018,05,06,00,02,14.50
2018,05,06,00,03,14.50
2018,05,06,00,04,14.60
2018,05,06,00,05,14.60
2018,05,06,00,06,14.60
2018,05,06,00,07,14.60
2018,05,06,00,08,14.60
2018,05,06,00,09,14.60
2018,05,06,00,10,14.60
2018,05,06,00,11,14.60
2018,05,06,00,12,14.60
2018,05,06,00,13,14.60
2018,05,06,00,14,14.70
2018,05,06,00,15,14.70
2018,05,06,00,16,14.70
2018,05,06,00,17,14.70
2018,05,06,00,18,14.70
2018,05,06,00,19,14.70
2018,05,06,00,20,14.70
2018,05,06,00,21,14.70
2018,05,06,00,22,14.70
2018,05,06,00,23,14.70
2018,05,06,00,24,14.70
2018,05,06,00,25,14.80
2018,05,06,00,26,14.80
2018,05,06,00,27,14.80
2018,05,06,00,28,14.80
2018,05,06,00,29,14.80
2018,05,06,00,30,14.80
2018,05,06,00,31,14.80
2018,05,06,00,32,14.80
2018,05,06,00,33,14.80
2018,05,06,00,34,14.80
2018,05,06,00,35,14.80
2018,05,06,00,36,14.80
2018,05,06,00,37,14.80
2018,05,06,00,38,14.80
2018,05,06,00,39,14.80
2018,05,06,00,40,14.80
2018,05,06,00,41,14.80
2018,05,06,00,42,14.80
2018,05,06,00,43,14.80
2018,05,06,00,44,14.80
2018,05,06,00,45,14.80
2018,05,06,00,46,14.80
2018,05,06,00,47,14.80
2018,05,06,00,48,14.80
2018,05,06,00,49,14.80
2018,05,06,00,50,14.80
2018,05,06,00,51,14.80
2018,05,06,00,52,14.80
2018,05,06,00,53,14.80
2018,05,06,00,54,14.80
2018,05,06,00,55,14.80
2018,05,06,00,56,14.80
2018,05,06,00,57,14.80
2018,05,06,00,58,14.80
2018,05,06,00,59,14.80
2018,05,06,01,00,14.80
2018,05,06,01,01,14.80
2018,05,06,01,02,14.80
2018,05,06,01,03,14.70
2018,05,06,01,04,14.70
2018,05,06,01,05,14.70
2018,05,06,01,06,14.70
2018,05,06,01,07,14.70
2018,05,06,01,08,14.70
2018,05,06,01,09,14.70
2018,05,06,01,10,14.70
2018,05,06,01,11,14.70
2018,05,06,01,12,14.70
2018,05,06,01,13,14.70
2018,05,06,01,14,14.70
2018,05,06,01,15,14.70
2018,05,06,01,16,14.70
2018,05,06,01,17,14.70
2018,05,06,01,18,14.70
2018,05,06,01,19,14.70
2018,05,06,01,20,14.70
2018,05,06,01,21,14.70
2018,05,06,01,22,14.70
2018,05,06,01,23,14.70
2018,05,06,01,24,14.70
2018,05,06,01,25,14.70
2018,05,06,01,26,14.70
2018,05,06,01,27,14.70
2018,05,06,01,28,14.70
2018,05,06,01,29,14.70
2018,05,06,01,30,14.70
2018,05,06,01,31,14.70
2018,05,06,01,32,14.70
2018,05,06,01,33,14.70
2018,05,06,01,34,14.70
2018,05,06,01,35,14.70
2018,05,06,01,36,14.70
2018,05,06,01,37,14.70
2018,05,06,01,38,14.70
2018,05,06,01,39,14.70
2018,05,06,01,40,14.70
2018,05,06,01,41,14.70
2018,05,06,01,42,14.70
2018,05,06,01,43,14.70
2018,05,06,01,44,14.70
2018,05,06,01,45,14.70
2018,05,06,01,46,14.70
2018,05,06,01,47,14.60
2018,05,06,01,48,14.60
2018,05,06,01,49,14.60
2018,05,06,01,50,14.60
2018,05,06,01,51,14.60
2018,05,06,01,52,14.60
2018,05,06,01,53,14.60
2018,05,06,01,54,14.60
2018,05,06,01,55,14.60
2018,05,06,01,56,14.60
2018,05,06,01,57,14.60
2018,05,06,01,58,14.60
2018,05,06,01,59,14.50
2018,05,06,02,00,14.60
2018,05,06,02,01,14.50
2018,05,06,02,02,14.50
2018,05,06,02,03,14.50
2018,05,06,02,04,14.50
2018,05,06,02,05,14.50
2018,05,06,02,06,14.50
2018,05,06,02,07,14.50
2018,05,06,02,08,14.50
2018,05,06,02,09,14.50
2018,05,06,02,10,14.50
2018,05,06,02,11,14.50
2018,05,06,02,12,14.50
2018,05,06,02,13,14.50
2018,05,06,02,14,14.40
2018,05,06,02,15,14.40
2018,05,06,02,16,14.40
2018,05,06,02,17,14.40
2018,05,06,02,18,14.40
2018,05,06,02,19,14.40
2018,05,06,02,20,14.40
2018,05,06,02,21,14.40
2018,05,06,02,22,14.40
2018,05,06,02,23,14.40
2018,05,06,02,24,14.40
2018,05,06,02,25,14.40
2018,05,06,02,26,14.40
2018,05,06,02,27,14.40
2018,05,06,02,28,14.50
2018,05,06,02,29,14.50
2018,05,06,02,30,14.50
2018,05,06,02,31,14.50
2018,05,06,02,32,14.40
2018,05,06,02,33,14.40
2018,05,06,02,34,14.30
2018,05,06,02,35,14.30
2018,05,06,02,36,14.20
2018,05,06,02,37,14.10
2018,05,06,02,38,14.00
2018,05,06,02,39,13.80
2018,05,06,02,40,13.80
2018,05,06,02,41,13.70
2018,05,06,02,42,13.60
2018,05,06,02,43,13.50
2018,05,06,02,44,13.40
2018,05,06,02,45,13.40
2018,05,06,02,46,13.40
2018,05,06,02,47,13.30
2018,05,06,02,48,13.30
2018,05,06,02,49,13.30
2018,05,06,02,50,13.30
2018,05,06,02,51,13.20
2018,05,06,02,52,13.20
2018,05,06,02,53,13.20
2018,05,06,02,54,13.20
2018,05,06,02,55,13.10
2018,05,06,02,56,13.10
2018,05,06,02,57,13.10
2018,05,06,02,58,13.10
2018,05,06,02,59,13.10
2018,05,06,03,00,13.10
2018,05,06,03,01,13.10
2018,05,06,03,02,13.10
2018,05,06,03,03,13.00
2018,05,06,03,04,13.00
2018,05,06,03,05,13.00
2018,05,06,03,06,13.00
2018,05,06,03,07,13.00
2018,05,06,03,08,13.00
2018,05,06,03,09,13.00
2018,05,06,03,10,12.90
2018,05,06,03,11,12.90
2018,05,06,03,12,12.90
2018,05,06,03,13,12.90
2018,05,06,03,14,12.90
2018,05,06,03,15,12.90
2018,05,06,03,16,12.90
2018,05,06,03,17,12.90
2018,05,06,03,18,12.90
2018,05,06,03,19,12.90
2018,05,06,03,20,12.90
2018,05,06,03,21,12.90
2018,05,06,03,22,12.90
2018,05,06,03,23,12.90
2018,05,06,03,24,12.90
2018,05,06,03,25,12.90
2018,05,06,03,26,12.90
2018,05,06,03,27,12.90
2018,05,06,03,28,12.90
2018,05,06,03,29,12.90
2018,05,06,03,30,12.90
2018,05,06,03,31,12.90
2018,05,06,03,32,12.80
2018,05,06,03,33,12.80
2018,05,06,03,34,12.80
2018,05,06,03,35,12.80
2018,05,06,03,36,12.80
2018,05,06,03,37,12.80
2018,05,06,03,38,12.80
2018,05,06,03,39,12.80
2018,05,06,03,40,12.80
2018,05,06,03,41,12.80
2018,05,06,03,42,12.80
2018,05,06,03,43,12.80
2018,05,06,03,44,12.80
2018,05,06,03,45,12.70
2018,05,06,03,46,12.70
2018,05,06,03,47,12.70
2018,05,06,03,48,12.70
2018,05,06,03,49,12.70
2018,05,06,03,50,12.70
2018,05,06,03,51,12.70
2018,05,06,03,52,12.60
2018,05,06,03,53,12.60
2018,05,06,03,54,12.60
2018,05,06,03,55,12.60
2018,05,06,03,56,12.60
2018,05,06,03,57,12.60
2018,05,06,03,58,12.60
2018,05,06,03,59,12.60
2018,05,06,04,00,12.60
2018,05,06,04,01,12.60
2018,05,06,04,02,12.60
2018,05,06,04,03,12.60
2018,05,06,04,04,12.60
2018,05,06,04,05,12.50
2018,05,06,04,06,12.50
2018,05,06,04,07,12.50
2018,05,06,04,08,12.50
2018,05,06,04,09,12.50
2018,05,06,04,10,12.40
2018,05,06,04,11,12.40
2018,05,06,04,12,12.40
2018,05,06,04,13,12.40
2018,05,06,04,14,12.40
2018,05,06,04,15,12.40
2018,05,06,04,16,12.40
2018,05,06,04,17,12.40
2018,05,06,04,18,12.40
2018,05,06,04,19,12.40
2018,05,06,04,20,12.40
2018,05,06,04,21,12.40
2018,05,06,04,22,12.40
2018,05,06,04,23,12.40
2018,05,06,04,24,12.40
2018,05,06,04,25,12.40
2018,05,06,04,26,12.40
2018,05,06,04,27,12.40
2018,05,06,04,28,12.40
2018,05,06,04,29,12.40
2018,05,06,04,30,12.40
2018,05,06,04,31,12.40
2018,05,06,04,32,12.40
2018,05,06,04,33,12.40
2018,05,06,04,34,12.40
2018,05,06,04,35,12.40
2018,05,06,04,36,12.40
2018,05,06,04,37,12.40
2018,05,06,04,38,12.40
2018,05,06,04,39,12.40
2018,05,06,04,40,12.40
2018,05,06,04,41,12.40
2018,05,06,04,42,12.40
2018,05,06,04,43,12.40
2018,05,06,04,44,12.40
2018,05,06,04,45,12.40
2018,05,06,04,46,12.40
2018,05,06,04,47,12.40
2018,05,06,04,48,12.40
2018,05,06,04,49,12.40
2018,05,06,04,50,12.40
2018,05,06,04,51,12.40
2018,05,06,04,52,12.40
2018,05,06,04,53,12.40
2018,05,06,04,54,12.40
2018,05,06,04,55,12.40
2018,05,06,04,56,12.40
2018,05,06,04,57,12.40
2018,05,06,04,58,12.50
2018,05,06,04,59,12.50
2018,05,06,05,00,12.50
2018,05,06,05,01,12.50
2018,05,06,05,02,12.50
2018,05,06,05,03,12.50
2018,05,06,05,04,12.60
2018,05,06,05,05,12.60
2018,05,06,05,06,12.60
2018,05,06,05,07,12.60
2018,05,06,05,08,12.60
2018,05,06,05,09,12.60
2018,05,06,05,10,12.60
2018,05,06,05,11,12.60
2018,05,06,05,12,12.70
2018,05,06,05,13,12.70
2018,05,06,05,14,12.70
2018,05,06,05,15,12.70
2018,05,06,05,16,12.70
2018,05,06,05,17,12.70
2018,05,06,05,18,12.70
2018,05,06,05,19,12.70
2018,05,06,05,20,12.70
2018,05,06,05,21,12.70
2018,05,06,05,22,12.70
2018,05,06,05,23,12.70
2018,05,06,05,24,12.70
2018,05,06,05,25,12.70
2018,05,06,05,26,12.70
2018,05,06,05,27,12.60
2018,05,06,05,28,12.60
2018,05,06,05,29,12.60
2018,05,06,05,30,12.60
2018,05,06,05,31,12.60
2018,05,06,05,32,12.60
2018,05,06,05,33,12.60
2018,05,06,05,34,12.60
2018,05,06,05,35,12.50
2018,05,06,05,36,12.50
2018,05,06,05,37,12.50
2018,05,06,05,38,12.50
2018,05,06,05,39,12.40
2018,05,06,05,40,12.40
2018,05,06,05,41,12.40
2018,05,06,05,42,12.40
2018,05,06,05,43,12.40
2018,05,06,05,44,12.40
2018,05,06,05,45,12.30
2018,05,06,05,46,12.30
2018,05,06,05,47,12.30
2018,05,06,05,48,12.30
2018,05,06,05,49,12.30
2018,05,06,05,50,12.30
2018,05,06,05,51,12.30
2018,05,06,05,52,12.20
2018,05,06,05,53,12.20
2018,05,06,05,54,12.20
2018,05,06,05,55,12.20
2018,05,06,05,56,12.20
2018,05,06,05,57,12.20
2018,05,06,05,58,12.20
2018,05,06,05,59,12.20
2018,05,06,06,00,12.20
2018,05,06,06,01,12.20
2018,05,06,06,02,12.20
2018,05,06,06,03,12.20
2018,05,06,06,04,12.10
2018,05,06,06,05,12.10
2018,05,06,06,06,12.10
2018,05,06,06,07,12.10
2018,05,06,06,08,12.10
2018,05,06,06,09,12.10
2018,05,06,06,10,12.20
2018,05,06,06,11,12.10
2018,05,06,06,12,12.10
2018,05,06,06,13,12.10
2018,05,06,06,14,12.10
2018,05,06,06,15,12.10
2018,05,06,06,16,12.10
2018,05,06,06,17,12.10
2018,05,06,06,18,12.10
2018,05,06,06,19,12.10
2018,05,06,06,20,12.10
2018,05,06,06,21,12.10
2018,05,06,06,22,12.10
2018,05,06,06,23,12.10
2018,05,06,06,24,12.10
2018,05,06,06,25,12.10
2018,05,06,06,26,12.10
2018,05,06,06,27,12.10
2018,05,06,06,28,12.10
2018,05,06,06,29,12.20
2018,05,06,06,30,12.20
2018,05,06,06,31,12.20
2018,05,06,06,32,12.20
2018,05,06,06,33,12.20
2018,05,06,06,34,12.20
2018,05,06,06,35,12.20
2018,05,06,06,36,12.20
2018,05,06,06,37,12.20
2018,05,06,06,38,12.30
2018,05,06,06,39,12.30
2018,05,06,06,40,12.30
2018,05,06,06,41,12.30
2018,05,06,06,42,12.40
2018,05,06,06,43,12.40
2018,05,06,06,44,12.40
2018,05,06,06,45,12.50
2018,05,06,06,46,12.50
2018,05,06,06,47,12.60
2018,05,06,06,48,12.60
2018,05,06,06,49,12.60
2018,05,06,06,50,12.70
2018,05,06,06,51,12.70
2018,05,06,06,52,12.80
2018,05,06,06,53,12.90
2018,05,06,06,54,13.00
2018,05,06,06,55,13.10
2018,05,06,06,56,13.10
2018,05,06,06,57,13.20
2018,05,06,06,58,13.20
2018,05,06,06,59,13.20
2018,05,06,07,00,13.30
2018,05,06,07,01,13.30
2018,05,06,07,02,13.40
2018,05,06,07,03,13.40
2018,05,06,07,04,13.40
2018,05,06,07,05,13.40
2018,05,06,07,06,13.50
2018,05,06,07,07,13.50
2018,05,06,07,08,13.50
2018,05,06,07,09,13.60
2018,05,06,07,10,13.60
2018,05,06,07,11,13.60
2018,05,06,07,12,13.60
2018,05,06,07,13,13.60
2018,05,06,07,14,13.60
2018,05,06,07,15,13.70
2018,05,06,07,16,13.70
2018,05,06,07,17,13.70
2018,05,06,07,18,13.80
2018,05,06,07,19,13.80
2018,05,06,07,20,13.80
2018,05,06,07,21,13.90
2018,05,06,07,22,13.90
2018,05,06,07,23,14.00
2018,05,06,07,24,14.10
2018,05,06,07,25,14.20
2018,05,06,07,26,14.30
2018,05,06,07,27,14.40
2018,05,06,07,28,14.50
2018,05,06,07,29,14.60
2018,05,06,07,30,14.70
2018,05,06,07,31,14.70
2018,05,06,07,32,14.80
2018,05,06,07,33,14.90
2018,05,06,07,34,15.00
2018,05,06,07,35,15.10
2018,05,06,07,36,15.20
2018,05,06,07,37,15.30
2018,05,06,07,38,15.40
2018,05,06,07,39,15.50
2018,05,06,07,40,15.60
2018,05,06,07,41,15.70
2018,05,06,07,42,15.80
2018,05,06,07,43,15.80
2018,05,06,07,44,15.90
2018,05,06,07,45,15.90
2018,05,06,07,46,15.90
2018,05,06,07,47,15.90
2018,05,06,07,48,15.90
2018,05,06,07,49,16.00
2018,05,06,07,50,16.00
2018,05,06,07,51,16.10
2018,05,06,07,52,16.10
2018,05,06,07,53,16.10
2018,05,06,07,54,16.20
2018,05,06,07,55,16.20
2018,05,06,07,56,16.20
2018,05,06,07,57,16.30
2018,05,06,07,58,16.30
2018,05,06,07,59,16.30
2018,05,06,08,00,16.40
2018,05,06,08,01,16.40
2018,05,06,08,02,16.50
2018,05,06,08,03,16.50
2018,05,06,08,04,16.60
2018,05,06,08,05,16.70
2018,05,06,08,06,16.70
2018,05,06,08,07,16.80
2018,05,06,08,08,16.80
2018,05,06,08,09,16.90
2018,05,06,08,10,17.00
2018,05,06,08,11,17.00
2018,05,06,08,12,17.10
2018,05,06,08,13,17.20
2018,05,06,08,14,17.20
2018,05,06,08,15,17.20
2018,05,06,08,16,17.20
2018,05,06,08,17,17.20
2018,05,06,08,18,17.20
2018,05,06,08,19,17.30
2018,05,06,08,20,17.30
2018,05,06,08,21,17.40
2018,05,06,08,22,17.40
2018,05,06,08,23,17.50
2018,05,06,08,24,17.50
2018,05,06,08,25,17.60
2018,05,06,08,26,17.60
2018,05,06,08,27,17.70
2018,05,06,08,28,17.80
2018,05,06,08,29,17.80
2018,05,06,08,30,17.80
2018,05,06,08,31,17.80
2018,05,06,08,32,17.80
2018,05,06,08,33,17.80
2018,05,06,08,34,17.80
2018,05,06,08,35,17.80
2018,05,06,08,36,17.80
2018,05,06,08,37,17.80
2018,05,06,08,38,17.80
2018,05,06,08,39,17.80
2018,05,06,08,40,17.80
2018,05,06,08,41,17.80
2018,05,06,08,42,17.80
2018,05,06,08,43,17.80
2018,05,06,08,44,17.80
2018,05,06,08,45,17.90
2018,05,06,08,46,17.90
2018,05,06,08,47,17.90
2018,05,06,08,48,17.90
2018,05,06,08,49,17.80
2018,05,06,08,50,17.80
2018,05,06,08,51,17.80
2018,05,06,08,52,17.80
2018,05,06,08,53,17.80
2018,05,06,08,54,17.80
2018,05,06,08,55,17.80
2018,05,06,08,56,17.90
2018,05,06,08,57,17.90
2018,05,06,08,58,18.00
2018,05,06,08,59,18.00
2018,05,06,09,00,18.00
2018,05,06,09,01,18.10
2018,05,06,09,02,18.10
2018,05,06,09,03,18.10
2018,05,06,09,04,18.10
2018,05,06,09,05,18.10
2018,05,06,09,06,18.20
2018,05,06,09,07,18.20
2018,05,06,09,08,18.20
2018,05,06,09,09,18.20
2018,05,06,09,10,18.30
2018,05,06,09,11,18.30
2018,05,06,09,12,18.30
2018,05,06,09,13,18.30
2018,05,06,09,14,18.30
2018,05,06,09,15,18.40
2018,05,06,09,16,18.40
2018,05,06,09,17,18.40
2018,05,06,09,18,18.50
2018,05,06,09,19,18.50
2018,05,06,09,20,18.60
2018,05,06,09,21,18.60
2018,05,06,09,22,18.60
2018,05,06,09,23,18.70
2018,05,06,09,24,18.70
2018,05,06,09,25,18.80
2018,05,06,09,26,18.80
2018,05,06,09,27,18.90
2018,05,06,09,28,19.00
2018,05,06,09,29,19.10
2018,05,06,09,30,19.10
2018,05,06,09,31,19.10
2018,05,06,09,32,19.10
2018,05,06,09,33,19.10
2018,05,06,09,34,19.10
2018,05,06,09,35,19.10
2018,05,06,09,36,19.10
2018,05,06,09,37,19.10
2018,05,06,09,38,19.10
2018,05,06,09,39,19.20
2018,05,06,09,40,19.20
2018,05,06,09,41,19.20
2018,05,06,09,42,19.30
2018,05,06,09,43,19.30
2018,05,06,09,44,19.30
2018,05,06,09,45,19.30
2018,05,06,09,46,19.30
2018,05,06,09,47,19.40
2018,05,06,09,48,19.40
2018,05,06,09,49,19.30
2018,05,06,09,50,19.30
2018,05,06,09,51,19.20
2018,05,06,09,52,19.20
2018,05,06,09,53,19.10
2018,05,06,09,54,19.00
2018,05,06,09,55,19.00
2018,05,06,09,56,19.00
2018,05,06,09,57,19.00
2018,05,06,09,58,19.10
2018,05,06,09,59,19.20
2018,05,06,10,00,19.20
2018,05,06,10,01,19.20
2018,05,06,10,02,19.20
2018,05,06,10,03,19.20
2018,05,06,10,04,19.20
2018,05,06,10,05,19.10
2018,05,06,10,06,19.20
2018,05,06,10,07,19.20
2018,05,06,10,08,19.20
2018,05,06,10,09,19.20
2018,05,06,10,10,19.10
2018,05,06,10,11,19.10
2018,05,06,10,12,19.10
2018,05,06,10,13,19.00
2018,05,06,10,14,19.00
2018,05,06,10,15,19.00
2018,05,06,10,16,19.10
2018,05,06,10,17,19.20
2018,05,06,10,18,19.20
2018,05,06,10,19,19.20
2018,05,06,10,20,19.20
2018,05,06,10,21,19.30
2018,05,06,10,22,19.30
2018,05,06,10,23,19.40
2018,05,06,10,24,19.40
2018,05,06,10,25,19.40
2018,05,06,10,26,19.50
2018,05,06,10,27,19.60
2018,05,06,10,28,19.60
2018,05,06,10,29,19.70
2018,05,06,10,30,19.80
2018,05,06,10,31,19.80
2018,05,06,10,32,19.80
2018,05,06,10,33,19.80
2018,05,06,10,34,19.80
2018,05,06,10,35,19.80
2018,05,06,10,36,19.70
2018,05,06,10,37,19.70
2018,05,06,10,38,19.60
2018,05,06,10,39,19.60
2018,05,06,10,40,19.50
2018,05,06,10,41,19.50
2018,05,06,10,42,19.40
2018,05,06,10,43,19.40
2018,05,06,10,44,19.40
2018,05,06,10,45,19.40
2018,05,06,10,46,19.40
2018,05,06,10,47,19.40
2018,05,06,10,48,19.40
2018,05,06,10,49,19.50
2018,05,06,10,50,19.50
2018,05,06,10,51,19.50
2018,05,06,10,52,19.60
2018,05,06,10,53,19.60
2018,05,06,10,54,19.70
2018,05,06,10,55,19.70
2018,05,06,10,56,19.80
2018,05,06,10,57,19.90
2018,05,06,10,58,20.00
2018,05,06,10,59,20.10
2018,05,06,11,00,20.20
2018,05,06,11,01,20.10
2018,05,06,11,02,19.90
2018,05,06,11,03,19.90
2018,05,06,11,04,19.80
2018,05,06,11,05,19.80
2018,05,06,11,06,19.80
2018,05,06,11,07,19.80
2018,05,06,11,08,19.80
2018,05,06,11,09,19.80
2018,05,06,11,10,19.90
2018,05,06,11,11,20.00
2018,05,06,11,12,20.00
2018,05,06,11,13,20.10
2018,05,06,11,14,20.20
2018,05,06,11,15,20.30
2018,05,06,11,16,20.30
2018,05,06,11,17,20.40
2018,05,06,11,18,20.50
2018,05,06,11,19,20.60
2018,05,06,11,20,20.60
2018,05,06,11,21,20.60
2018,05,06,11,22,20.70
2018,05,06,11,23,20.70
2018,05,06,11,24,20.70
2018,05,06,11,25,20.70
2018,05,06,11,26,20.80
2018,05,06,11,27,20.80
2018,05,06,11,28,20.70
2018,05,06,11,29,20.70
2018,05,06,11,30,20.70
2018,05,06,11,31,20.70
2018,05,06,11,32,20.80
2018,05,06,11,33,20.80
2018,05,06,11,34,20.90
2018,05,06,11,35,20.90
2018,05,06,11,36,20.90
2018,05,06,11,37,20.90
2018,05,06,11,38,20.90
2018,05,06,11,39,21.00
2018,05,06,11,40,21.00
2018,05,06,11,41,21.10
2018,05,06,11,42,21.20
2018,05,06,11,43,21.20
2018,05,06,11,44,21.20
2018,05,06,11,45,21.20
2018,05,06,11,46,21.10
2018,05,06,11,47,21.10
2018,05,06,11,48,21.10
2018,05,06,11,49,21.10
2018,05,06,11,50,21.20
2018,05,06,11,51,21.20
2018,05,06,11,52,21.20
2018,05,06,11,53,21.30
2018,05,06,11,54,21.30
2018,05,06,11,55,21.30
2018,05,06,11,56,21.30
2018,05,06,11,57,21.30
2018,05,06,11,58,21.30
2018,05,06,11,59,21.40
2018,05,06,12,00,21.40
2018,05,06,12,01,21.50
2018,05,06,12,02,21.60
2018,05,06,12,03,21.60
2018,05,06,12,04,21.60
2018,05,06,12,05,21.50
2018,05,06,12,06,21.50
2018,05,06,12,07,21.50
2018,05,06,12,08,21.40
2018,05,06,12,09,21.40
2018,05,06,12,10,21.40
2018,05,06,12,11,21.40
2018,05,06,12,12,21.40
2018,05,06,12,13,21.50
2018,05,06,12,14,21.60
2018,05,06,12,15,21.60
2018,05,06,12,16,21.70
2018,05,06,12,17,21.70
2018,05,06,12,18,21.60
2018,05,06,12,19,21.60
2018,05,06,12,20,21.70
2018,05,06,12,21,21.70
2018,05,06,12,22,21.70
2018,05,06,12,23,21.80
2018,05,06,12,24,21.80
2018,05,06,12,25,21.80
2018,05,06,12,26,21.80
2018,05,06,12,27,21.80
2018,05,06,12,28,21.70
2018,05,06,12,29,21.70
2018,05,06,12,30,21.70
2018,05,06,12,31,21.70
2018,05,06,12,32,21.70
2018,05,06,12,33,21.70
2018,05,06,12,34,21.70
2018,05,06,12,35,21.70
2018,05,06,12,36,21.80
2018,05,06,12,37,21.70
2018,05,06,12,38,21.60
2018,05,06,12,39,21.50
2018,05,06,12,40,21.30
2018,05,06,12,41,21.20
2018,05,06,12,42,21.10
2018,05,06,12,43,21.10
2018,05,06,12,44,21.10
2018,05,06,12,45,21.20
2018,05,06,12,46,21.20
2018,05,06,12,47,21.20
2018,05,06,12,48,21.20
2018,05,06,12,49,21.20
2018,05,06,12,50,21.20
2018,05,06,12,51,21.20
2018,05,06,12,52,21.20
2018,05,06,12,53,21.30
2018,05,06,12,54,21.30
2018,05,06,12,55,21.40
2018,05,06,12,56,21.40
2018,05,06,12,57,21.40
2018,05,06,12,58,21.30
2018,05,06,12,59,21.20
2018,05,06,13,00,21.30
2018,05,06,13,01,21.40
2018,05,06,13,02,21.60
2018,05,06,13,03,21.70
2018,05,06,13,04,21.90
2018,05,06,13,05,22.00
2018,05,06,13,06,22.10
2018,05,06,13,07,22.20
2018,05,06,13,08,22.40
2018,05,06,13,09,22.50
2018,05,06,13,10,22.60
2018,05,06,13,11,22.70
2018,05,06,13,12,22.70
2018,05,06,13,13,22.80
2018,05,06,13,14,22.80
2018,05,06,13,15,22.80
2018,05,06,13,16,22.90
2018,05,06,13,17,23.00
2018,05,06,13,18,23.10
2018,05,06,13,19,23.10
2018,05,06,13,20,23.20
2018,05,06,13,21,23.20
2018,05,06,13,22,23.30
2018,05,06,13,23,23.30
2018,05,06,13,24,23.40
2018,05,06,13,25,23.40
2018,05,06,13,26,23.40
2018,05,06,13,27,23.40
2018,05,06,13,28,23.30
2018,05,06,13,29,23.30
2018,05,06,13,30,23.30
2018,05,06,13,31,23.20
2018,05,06,13,32,23.10
2018,05,06,13,33,23.10
2018,05,06,13,34,23.10
2018,05,06,13,35,23.20
2018,05,06,13,36,23.20
2018,05,06,13,37,23.10
2018,05,06,13,38,23.10
2018,05,06,13,39,23.10
2018,05,06,13,40,23.20
2018,05,06,13,41,23.20
2018,05,06,13,42,23.30
2018,05,06,13,43,23.30
2018,05,06,13,44,23.30
2018,05,06,13,45,23.30
2018,05,06,13,46,23.30
2018,05,06,13,47,23.30
2018,05,06,13,48,23.30
2018,05,06,13,49,23.20
2018,05,06,13,50,23.20
2018,05,06,13,51,23.30
2018,05,06,13,52,23.30
2018,05,06,13,53,23.30
2018,05,06,13,54,23.40
2018,05,06,13,55,23.50
2018,05,06,13,56,23.60
2018,05,06,13,57,23.70
2018,05,06,13,58,23.80
2018,05,06,13,59,23.80
2018,05,06,14,00,23.80
2018,05,06,14,01,23.90
2018,05,06,14,02,23.90
2018,05,06,14,03,23.90
2018,05,06,14,04,23.90
2018,05,06,14,05,23.90
2018,05,06,14,06,23.80
2018,05,06,14,07,23.60
2018,05,06,14,08,23.50
2018,05,06,14,09,23.30
2018,05,06,14,10,23.20
2018,05,06,14,11,23.00
2018,05,06,14,12,22.70
2018,05,06,14,13,22.60
2018,05,06,14,14,22.40
2018,05,06,14,15,22.40
2018,05,06,14,16,22.40
2018,05,06,14,17,22.40
2018,05,06,14,18,22.50
2018,05,06,14,19,22.50
2018,05,06,14,20,22.60
2018,05,06,14,21,22.70
2018,05,06,14,22,22.80
2018,05,06,14,23,22.90
2018,05,06,14,24,23.00
2018,05,06,14,25,23.10
2018,05,06,14,26,23.10
2018,05,06,14,27,23.00
2018,05,06,14,28,22.90
2018,05,06,14,29,22.80
2018,05,06,14,30,22.70
2018,05,06,14,31,22.50
2018,05,06,14,32,22.30
2018,05,06,14,33,22.20
2018,05,06,14,34,22.20
2018,05,06,14,35,22.10
2018,05,06,14,36,22.10
2018,05,06,14,37,22.00
2018,05,06,14,38,22.00
2018,05,06,14,39,22.00
2018,05,06,14,40,22.00
2018,05,06,14,41,22.00
2018,05,06,14,42,22.10
2018,05,06,14,43,22.10
2018,05,06,14,44,22.10
2018,05,06,14,45,22.10
2018,05,06,14,46,22.20
2018,05,06,14,47,22.20
2018,05,06,14,48,22.30
2018,05,06,14,49,22.30
2018,05,06,14,50,22.40
2018,05,06,14,51,22.50
2018,05,06,14,52,22.60
2018,05,06,14,53,22.70
2018,05,06,14,54,22.60
2018,05,06,14,55,22.50
2018,05,06,14,56,22.40
2018,05,06,14,57,22.20
2018,05,06,14,58,22.10
2018,05,06,14,59,21.90
2018,05,06,15,00,21.70
2018,05,06,15,01,21.60
2018,05,06,15,02,21.50
2018,05,06,15,03,21.40
2018,05,06,15,04,21.40
2018,05,06,15,05,21.20
2018,05,06,15,06,21.10
2018,05,06,15,07,21.10
2018,05,06,15,08,21.10
2018,05,06,15,09,21.00
2018,05,06,15,10,20.90
2018,05,06,15,11,20.90
2018,05,06,15,12,20.90
2018,05,06,15,13,20.80
2018,05,06,15,14,20.80
2018,05,06,15,15,20.80
2018,05,06,15,16,20.70
2018,05,06,15,17,20.70
2018,05,06,15,18,20.50
2018,05,06,15,19,20.40
2018,05,06,15,20,20.40
2018,05,06,15,21,20.30
2018,05,06,15,22,20.30
2018,05,06,15,23,20.20
2018,05,06,15,24,20.20
2018,05,06,15,25,20.10
2018,05,06,15,26,20.10
2018,05,06,15,27,20.10
2018,05,06,15,28,20.10
2018,05,06,15,29,20.10
2018,05,06,15,30,20.20
2018,05,06,15,31,20.20
2018,05,06,15,32,20.30
2018,05,06,15,33,20.40
2018,05,06,15,34,20.40
2018,05,06,15,35,20.50
2018,05,06,15,36,20.60
2018,05,06,15,37,20.70
2018,05,06,15,38,20.80
2018,05,06,15,39,20.80
2018,05,06,15,40,20.80
2018,05,06,15,41,20.80
2018,05,06,15,42,20.80
2018,05,06,15,43,20.90
2018,05,06,15,44,21.00
2018,05,06,15,45,21.10
2018,05,06,15,46,21.10
2018,05,06,15,47,21.10
2018,05,06,15,48,21.20
2018,05,06,15,49,21.20
2018,05,06,15,50,21.20
2018,05,06,15,51,21.20
2018,05,06,15,52,21.20
2018,05,06,15,53,21.10
2018,05,06,15,54,21.00
2018,05,06,15,55,21.00
2018,05,06,15,56,21.00
2018,05,06,15,57,21.00
2018,05,06,15,58,20.90
2018,05,06,15,59,20.80
2018,05,06,16,00,20.70
2018,05,06,16,01,20.70
2018,05,06,16,02,20.60
2018,05,06,16,03,20.60
2018,05,06,16,04,20.70
2018,05,06,16,05,20.70
2018,05,06,16,06,20.60
2018,05,06,16,07,20.60
2018,05,06,16,08,20.50
2018,05,06,16,09,20.40
2018,05,06,16,10,20.40
2018,05,06,16,11,20.40
2018,05,06,16,12,20.40
2018,05,06,16,13,20.50
2018,05,06,16,14,20.50
2018,05,06,16,15,20.60
2018,05,06,16,16,20.70
2018,05,06,16,17,20.80
2018,05,06,16,18,20.80
2018,05,06,16,19,20.80
2018,05,06,16,20,20.80
2018,05,06,16,21,20.70
2018,05,06,16,22,20.70
2018,05,06,16,23,20.70
2018,05,06,16,24,20.70
2018,05,06,16,25,20.70
2018,05,06,16,26,20.70
2018,05,06,16,27,20.70
2018,05,06,16,28,20.60
2018,05,06,16,29,20.60
2018,05,06,16,30,20.50
2018,05,06,16,31,20.40
2018,05,06,16,32,20.40
2018,05,06,16,33,20.30
2018,05,06,16,34,20.30
2018,05,06,16,35,20.30
2018,05,06,16,36,20.30
2018,05,06,16,37,20.20
2018,05,06,16,38,20.10
2018,05,06,16,39,20.00
2018,05,06,16,40,19.90
2018,05,06,16,41,19.80
2018,05,06,16,42,19.80
2018,05,06,16,43,19.80
2018,05,06,16,44,19.80
2018,05,06,16,45,19.80
2018,05,06,16,46,19.80
2018,05,06,16,47,19.80
2018,05,06,16,48,19.80
2018,05,06,16,49,19.80
2018,05,06,16,50,19.80
2018,05,06,16,51,19.70
2018,05,06,16,52,19.70
2018,05,06,16,53,19.60
2018,05,06,16,54,19.60
2018,05,06,16,55,19.50
2018,05,06,16,56,19.50
2018,05,06,16,57,19.40
2018,05,06,16,58,19.40
2018,05,06,16,59,19.40
2018,05,06,17,00,19.30
2018,05,06,17,01,19.30
2018,05,06,17,02,19.30
2018,05,06,17,03,19.20
2018,05,06,17,04,19.20
2018,05,06,17,05,19.10
2018,05,06,17,06,19.00
2018,05,06,17,07,19.00
2018,05,06,17,08,19.00
2018,05,06,17,09,19.00
2018,05,06,17,10,19.10
2018,05,06,17,11,19.20
2018,05,06,17,12,19.20
2018,05,06,17,13,19.30
2018,05,06,17,14,19.30
2018,05,06,17,15,19.40
2018,05,06,17,16,19.40
2018,05,06,17,17,19.40
2018,05,06,17,18,19.50
2018,05,06,17,19,19.40